Muskegon, MI

12:55 AM EST on November 22, 2019 (GMT -0500)
Muskegon County

Weather History for KMKG - September, 2019

Change the Weather History Date:

Monday, September 23, 2019

  Actual Average Record
Temperature  
Mean Temperature 64 °F 59 °F  
Max Temperature 71 °F 68 °F 92 °F (2017)
Min Temperature 56 °F 50 °F 31 °F (1896)
Degree Days  
Heating Degree Days 1 7  
Month to date heating degree days 21 86  
Since 1 July heating degree days 25 116  
Cooling Degree Days 0 1  
Month to date cooling degree days 77 50  
Year to date cooling degree days 622 557  
Growing Degree Days 14 (Base 50)    
Moisture  
Dew Point 59 °F    
Average Humidity 77    
Maximum Humidity 93    
Minimum Humidity 61    
Precipitation  
Precipitation 0.00 in 0.14 in 1.35 in (1946)
Month to date precipitation 4.20 2.99  
Year to date precipitation 31.33 23.57  
Snow  
Snow 0.00 in 0.00 in - ()
Month to date snowfall 0.0 0.0  
Since 1 July snowfall 0.0 0.0  
Since 1 September snowfall 0.0 0.0  
Snow Depth 0.00 in    
Sea Level Pressure  
Sea Level Pressure 29.89 in    
Wind  
Wind Speed 8 mph (WNW)    
Max Wind Speed 20 mph    
Max Gust Speed 31 mph    
Visibility 10 miles    
Events      
T = Trace of Precipitation, MM = Missing Value Source: NWS Daily Summary

Daily Weather History Graph

Daily Weather History Graph

Search for Another Location

Airport or City:

Astronomy

Sep. 23, 2019 Rise Set
Actual Time 7:33 AM EDT 7:40 PM EDT
Civil Twilight 7:04 AM EDT 8:09 PM EDT
Nautical Twilight 6:31 AM EDT 8:42 PM EDT
Astronomical Twilight 5:57 AM EDT 9:16 PM EDT
Moon 1:05 AM EDT (9/23) 4:43 PM EDT (9/23)
Length of Visible Light 13h 04m
Length of Day
12h 07m
Waning Crescent, 33% of the Moon is Illuminated
Sep 23
Waning Crescent
Sep 28
New
Oct 5
First Quarter
Oct 13
Full
Oct 21
Last Quarter

Hourly Weather History & Observations

Time (EDT) Temp. Dew Point Humidity Pressure Visibility Wind Dir Wind Speed Gust Speed Precip Events Conditions
12:20 AM 66.9 °F 64.0 °F 90% 29.81 in 10.0 mi West 5.8 mph - N/A   Overcast
12:39 AM 66.9 °F 64.0 °F 90% 29.80 in 10.0 mi West 6.9 mph - N/A   Overcast
12:55 AM 66.9 °F 64.0 °F 90% 29.80 in 10.0 mi West 8.1 mph - N/A   Overcast
1:13 AM 66.9 °F 64.0 °F 90% 29.81 in 10.0 mi West 5.8 mph - N/A   Overcast
1:48 AM 68.0 °F 64.0 °F 87% 29.82 in 10.0 mi West 6.9 mph - N/A   Overcast
1:55 AM 68.0 °F 64.0 °F 87% 29.81 in 10.0 mi West 8.1 mph - N/A   Overcast
2:06 AM 68.0 °F 64.0 °F 87% 29.82 in 10.0 mi West 9.2 mph - N/A   Overcast
2:55 AM 66.9 °F 64.0 °F 90% 29.81 in 10.0 mi WNW 8.1 mph - N/A   Overcast
3:03 AM 66.9 °F 63.0 °F 87% 29.82 in 10.0 mi WNW 9.2 mph - N/A   Overcast
3:16 AM 66.9 °F 63.0 °F 87% 29.82 in 10.0 mi WNW 6.9 mph - N/A   Overcast
3:27 AM 66.9 °F 63.0 °F 87% 29.82 in 10.0 mi West 6.9 mph - N/A   Overcast
3:55 AM 66.9 °F 63.0 °F 87% 29.81 in 10.0 mi WNW 8.1 mph - N/A   Overcast
4:10 AM 66.9 °F 62.1 °F 84% 29.82 in 10.0 mi WNW 5.8 mph - N/A   Overcast
4:55 AM 66.0 °F 62.1 °F 87% 29.83 in 10.0 mi WNW 6.9 mph - N/A   Overcast
5:23 AM 64.9 °F 59.0 °F 81% 29.84 in 10.0 mi NW 12.7 mph 24.2 mph N/A   Mostly Cloudy
5:55 AM 64.0 °F 59.0 °F 84% 29.84 in 10.0 mi WNW 8.1 mph 19.6 mph N/A   Mostly Cloudy
6:50 AM 64.4 °F 57.2 °F 77% 29.87 in 10.0 mi WNW 10.4 mph 23.0 mph N/A   Mostly Cloudy
6:55 AM 64.0 °F 57.9 °F 80% 29.86 in 10.0 mi WNW 11.5 mph 23.0 mph N/A   Mostly Cloudy
7:55 AM 63.0 °F 57.9 °F 84% 29.88 in 10.0 mi NW 9.2 mph - N/A   Mostly Cloudy
8:55 AM 64.0 °F 55.9 °F 75% 29.91 in 10.0 mi NW 5.8 mph - N/A   Mostly Cloudy
9:55 AM 64.0 °F 55.0 °F 73% 29.93 in 10.0 mi WNW 15.0 mph 25.3 mph N/A   Mostly Cloudy
10:47 AM 64.9 °F 54.0 °F 68% 29.95 in 10.0 mi NW 13.8 mph 27.6 mph N/A   Scattered Clouds
10:55 AM 66.0 °F 55.0 °F 68% 29.94 in 10.0 mi WNW 10.4 mph 19.6 mph N/A   Scattered Clouds
11:55 AM 66.9 °F 55.0 °F 66% 29.95 in 10.0 mi WNW 15.0 mph 25.3 mph N/A   Mostly Cloudy
12:55 PM 66.9 °F 55.0 °F 66% 29.96 in 10.0 mi WNW 15.0 mph 23.0 mph N/A   Mostly Cloudy
1:55 PM 69.1 °F 55.9 °F 63% 29.96 in 10.0 mi West 11.5 mph 26.5 mph N/A   Mostly Cloudy
2:16 PM 69.1 °F 55.0 °F 61% 29.96 in 10.0 mi WNW 15.0 mph 24.2 mph N/A   Scattered Clouds
2:55 PM 70.0 °F 55.0 °F 59% 29.95 in 10.0 mi West 16.1 mph 23.0 mph N/A   Scattered Clouds
3:55 PM 70.0 °F 55.0 °F 59% 29.95 in 10.0 mi WNW 12.7 mph 24.2 mph N/A   Scattered Clouds
4:55 PM 70.0 °F 55.0 °F 59% 29.95 in 10.0 mi West 10.4 mph - N/A   Scattered Clouds
5:55 PM 69.1 °F 55.0 °F 61% 29.96 in 10.0 mi WNW 9.2 mph - N/A   Scattered Clouds
6:55 PM 66.9 °F 55.0 °F 66% 29.96 in 10.0 mi West 6.9 mph - N/A   Partly Cloudy
7:55 PM 62.1 °F 55.0 °F 78% 29.97 in 10.0 mi Calm Calm - N/A   Clear
8:55 PM 61.0 °F 55.9 °F 83% 29.98 in 10.0 mi Calm Calm - N/A   Clear
9:55 PM 59.0 °F 55.0 °F 87% 29.99 in 10.0 mi Calm Calm - N/A   Clear
10:55 PM 57.9 °F 54.0 °F 87% 29.99 in 10.0 mi SE 3.5 mph - N/A   Clear
11:55 PM 57.0 °F 53.1 °F 87% 29.98 in 10.0 mi Calm Calm - N/A   Mostly Cloudy